Location: Sternwarte ZA, Rosenfeld-Brittheim
(48.2889°N, 8.6789°E)
Time: 05:05:09
(UTC+02:00)

ISS - Pass Details

Date: 22 September 2020
Orbit: 419 x 420 km, 51.6° (Epoch: 21 September)

Event Time Altitude Azimuth Distance (km) Brightness Sun altitude
Rises 20:04:10 0° 240° (WSW) 2,359 1.0 -7.7°
Reaches altitude 10° 20:06:15 10° 238° (WSW) 1,498 -0.2 -8.1°
Maximum altitude 20:09:36 72° 154° (SSE) 446 -3.8 -8.6°
Drops below altitude 10° 20:12:58 10° 70° (ENE) 1,504 -1.5 -9.2°
Enters shadow 20:12:59 10° 70° (ENE) 1,512 -1.5 -9.2°
